Flag Weather past 2 weeks in Tampere, Finland

Now
37 °F

Light rain. Partly sunny.


Feels Like: 34 °F
Forecast: 30 / 34 °F
Wind: 5 mph from Southeast

Location: Tampere / Pirkkala

Current Time: Nov 28, 2014 at 1:33:17 PM

Latest Report: Nov 28, 2014 at 12:50 PM


Visibility: 4 mi

Pressure: 30.45 "Hg

Humidity: 100%

Dew point: 37 °F

Location of TampereLocation

Historic Weather in Tampere — Graph

°F

Tampere temperature yesterday

Maximum temperature yesterday: 37 °F (at 11:20 AM)
Minimum temperature yesterday: 34 °F (at 12:20 AM)
Average temperature yesterday: 36 °F

Past Weeks' High & Low Weather Summary

 TemperatureHumidityPressure
High39 °F (Nov 25, 8:20 PM)100% (Nov 13, 3:50 PM)30.60 "Hg (Nov 13, 3:50 PM)
Low27 °F (Nov 20, 5:50 AM)81% (Nov 17, 2:50 PM)30.09 "Hg (Nov 24, 11:50 PM)
Average32 °F96%30.38 "Hg
* Reported Nov 13 12:20 PM — Nov 28 12:20 PM, Tampere, Weather by CustomWeather, © 2014

Note: Actual official high and low records may vary slightly from our data, if they occured in-between our weather recording intervals... More about our weather records

Advertising

Tampere weather history for previous 24 hours

 ConditionsComfort  
Time TempWeatherWind HumidityBarometerVisibility
12:20 PM
Nov 28
37 °FLight rain. Fog.3 mph100%30.45 "Hg2 mi
11:50 AM37 °FPartly sunny.3 mph100%30.45 "Hg4 mi
11:20 AM37 °FFog.2 mph100%30.45 "Hg2 mi
10:50 AM36 °FFog.3 mph100%30.45 "Hg2 mi
10:20 AM36 °FLight rain. Fog.3 mph100%30.45 "Hg1 mi
9:50 AM36 °FFog.3 mph100%30.45 "Hg1 mi
9:20 AM36 °FFog.3 mph100%30.42 "Hg1 mi
8:50 AM36 °FFog.3 mph100%30.42 "Hg0 mi
8:20 AM36 °FFog.5 mph100%30.42 "Hg0 mi
7:50 AM36 °FFog.3 mph100%30.42 "Hg0 mi
7:20 AM36 °FFog.2 mph100%30.42 "Hg1 mi
6:50 AM36 °FFog.2 mph100%30.39 "Hg1 mi
6:20 AM36 °FFog.2 mph100%30.39 "Hg1 mi
5:20 AM36 °FFog.3 mph100%30.39 "Hg2 mi
4:50 AM36 °FMostly cloudy.3 mph100%30.39 "Hg3 mi
4:20 AM36 °FPassing clouds.5 mph100%30.39 "Hg3 mi
3:50 AM36 °FMostly cloudy.5 mph100%30.39 "Hg3 mi
3:20 AM36 °FFog.3 mph100%30.36 "Hg1 mi
2:50 AM36 °FFog.5 mph100%30.36 "Hg1 mi
2:20 AM36 °FFog.3 mph100%30.36 "Hg1 mi
1:50 AM36 °FFog.3 mph100%30.36 "Hg1 mi
1:20 AM36 °FFog.3 mph100%30.36 "Hg1 mi
12:50 AM36 °FFog.3 mph100%30.36 "Hg1 mi
12:20 AM36 °FFog.3 mph100%30.36 "Hg2 mi
11:50 PM
Nov 27
36 °FFog.3 mph100%30.36 "Hg2 mi
11:20 PM36 °FFog.3 mph100%30.36 "Hg2 mi
10:50 PM36 °FFog.3 mph100%30.36 "Hg2 mi
10:20 PM36 °FFog.5 mph100%30.33 "Hg1 mi
9:50 PM36 °FFog.5 mph100%30.33 "Hg1 mi
9:20 PM36 °FFog.5 mph100%30.33 "Hg2 mi
8:50 PM36 °FFog.5 mph100%30.33 "Hg3 mi
8:20 PM36 °FScattered showers. Fog.3 mph100%30.33 "Hg3 mi
7:50 PM36 °FLight rain. Low clouds.3 mph100%30.33 "Hg3 mi
7:20 PM36 °FMostly cloudy.3 mph100%30.30 "Hg4 mi
6:50 PM36 °FSprinkles. Mostly cloudy.5 mph100%30.30 "Hg3 mi
6:20 PM36 °FMostly cloudy.5 mph100%30.30 "Hg4 mi
5:50 PM37 °FMostly cloudy.5 mph100%30.30 "Hg4 mi
5:20 PM37 °FSprinkles. Mostly cloudy.5 mph100%30.30 "Hg4 mi
4:50 PM37 °FLight rain. Mostly cloudy.5 mph100%30.30 "Hg4 mi
4:20 PM37 °FOvercast.5 mph100%30.30 "Hg4 mi
3:50 PM37 °FOvercast.3 mph100%30.30 "Hg4 mi
3:20 PM37 °FDrizzle. Partly sunny.5 mph100%30.27 "Hg5 mi
2:50 PM37 °FPartly sunny.5 mph100%30.27 "Hg5 mi
2:20 PM37 °FLight rain. Broken clouds.5 mph100%30.27 "Hg5 mi
1:50 PM37 °FLight rain. More clouds than sun.5 mph100%30.27 "Hg6 mi
1:20 PM37 °FLight rain. More clouds than sun.6 mph100%30.27 "HgN/A
Weather by CustomWeather, © 2014

See weather overviewHow to use our weather pages